Flag for U.S.A. Weather past 2 weeks in Honolulu, Hawaii, U.S.A.

Now
70 °F

Passing clouds.


Feels Like: 73 °F
Forecast: 65 / 75 °F
Wind: 6 mph from North

Location: Honolulu International Airport

Current Time: Jan 26, 2015 at 2:51:16 AM

Latest Report: Jan 26, 2015 at 1:53 AM


Visibility: 10 mi

Pressure: 29.96 "Hg

Humidity: 73%

Dew point: 61 °F

Location of HonoluluLocation

Historic Weather in Honolulu — Graph

°F

Honolulu temperature yesterday

Maximum temperature yesterday: 76 °F (at 10:53 AM)
Minimum temperature yesterday: 67 °F (at 2:53 AM)
Average temperature yesterday: 71 °F

Past Weeks' High & Low Weather Summary

 TemperatureHumidityPressure
High84 °F (Jan 18, 2:53 PM)100% (Jan 23, 4:26 PM)30.11 "Hg (Jan 23, 4:26 PM)
Low64 °F (Jan 11, 5:53 AM)40% (Jan 18, 2:53 PM)29.88 "Hg (Jan 11, 2:53 PM)
Average73 °F77%30.00 "Hg
* Reported Jan 11 1:53 AM — Jan 26 1:53 AM, Honolulu, Weather by CustomWeather, © 2014

Note: Actual official high and low records may vary slightly from our data, if they occured in-between our weather recording intervals... More about our weather records

Advertising

Honolulu weather history for previous 24 hours

 ConditionsComfort  
Time TempWeatherWind HumidityBarometerVisibility
1:53 AM
Jan 26
70 °FClear.6 mph73%29.96 "Hg10 mi
12:53 AM70 °FPassing clouds.7 mph73%29.98 "Hg10 mi
11:53 PM
Jan 25
70 °FPassing clouds.8 mph73%29.99 "Hg10 mi
10:53 PM70 °FPassing clouds.No wind73%30.01 "Hg10 mi
9:53 PM70 °FPassing clouds.13 mph73%30.02 "Hg10 mi
8:53 PM70 °FPassing clouds.9 mph73%30.01 "Hg10 mi
7:53 PM70 °FPartly cloudy.15 mph76%30.01 "Hg10 mi
6:53 PM71 °FPartly cloudy.13 mph73%30.00 "Hg10 mi
5:53 PM72 °FScattered clouds.6 mph68%29.98 "Hg10 mi
4:53 PM73 °FScattered clouds.16 mph66%29.96 "Hg10 mi
3:53 PM74 °FPartly sunny.17 mph67%29.96 "Hg10 mi
2:53 PM75 °FPartly sunny.16 mph64%29.96 "Hg10 mi
1:53 PM76 °FPartly sunny.20 mph62%29.97 "Hg10 mi
12:53 PM75 °FBroken clouds.18 mph62%30.00 "Hg10 mi
11:53 AM74 °FBroken clouds.18 mph64%30.03 "Hg10 mi
10:53 AM76 °FBroken clouds.20 mph62%30.05 "Hg10 mi
9:53 AM74 °FBroken clouds.10 mph67%30.06 "Hg10 mi
8:53 AM73 °FBroken clouds.15 mph69%30.05 "Hg10 mi
7:53 AM70 °FPartly sunny.7 mph76%30.04 "Hg10 mi
6:53 AM69 °FPassing clouds.7 mph79%30.03 "Hg10 mi
5:53 AM67 °FPassing clouds.3 mph85%30.01 "Hg10 mi
4:53 AM67 °FPassing clouds.8 mph85%30.01 "Hg10 mi
3:53 AM68 °FPassing clouds.8 mph78%30.01 "Hg10 mi
2:53 AM67 °FPassing clouds.6 mph81%30.01 "Hg10 mi
Weather by CustomWeather, © 2014

See weather overviewHow to use our weather pages